Time,TemperatureF,DewpointF,PressureIn,WindDirection,WindDirectionDegrees,WindSpeedMPH,WindSpeedGustMPH,Humidity,HourlyPrecipIn,Conditions,Clouds,dailyrainin,SoftwareType,DateUTC
2013-11-23 00:22:00,36.0,30.0,30.05,SW,228,9.0,-999.0,79,-99.99,,,-99.99,,2013-11-23 05:22:00,
2013-11-23 00:42:00,36.0,30.0,30.05,West,273,8.0,-999.0,79,-99.99,,,-99.99,,2013-11-23 05:42:00,
2013-11-23 00:53:00,35.0,29.0,30.04,SW,219,8.0,-999.0,79,-99.99,,,-99.99,,2013-11-23 05:53:00,
2013-11-23 01:12:00,35.0,29.0,30.05,WNW,296,7.0,-999.0,79,-99.99,,,-99.99,,2013-11-23 06:12:00,
2013-11-23 01:22:00,35.0,29.0,30.05,SW,236,9.0,-999.0,79,-99.99,,,-99.99,,2013-11-23 06:22:00,
2013-11-23 01:42:00,34.0,28.0,30.05,West,265,10.0,-999.0,79,-99.99,,,-99.99,,2013-11-23 06:42:00,
2013-11-23 01:52:00,34.0,28.0,30.05,WNW,302,9.0,-999.0,79,-99.99,,,-99.99,,2013-11-23 06:52:00,
2013-11-23 02:11:00,34.0,28.0,30.05,WSW,255,6.0,-999.0,79,-99.99,,,-99.99,,2013-11-23 07:11:00,
2013-11-23 02:22:00,33.0,27.0,30.05,NW,315,8.0,-999.0,79,-99.99,,,-99.99,,2013-11-23 07:22:00,
2013-11-23 02:42:00,33.0,28.0,30.05,SW,234,8.0,-999.0,80,-99.99,,,-99.99,,2013-11-23 07:42:00,
2013-11-23 02:52:00,33.0,27.0,30.05,West,259,9.0,-999.0,79,-99.99,,,-99.99,,2013-11-23 07:52:00,
2013-11-23 03:22:00,32.0,27.0,30.04,West,276,8.0,-999.0,80,-99.99,,,-99.99,,2013-11-23 08:22:00,
2013-11-23 03:42:00,31.0,26.0,30.06,WNW,287,9.0,-999.0,80,-99.99,,,-99.99,,2013-11-23 08:42:00,
2013-11-23 03:52:00,31.0,26.0,30.05,West,266,9.0,-999.0,80,-99.99,,,-99.99,,2013-11-23 08:52:00,
2013-11-23 04:12:00,32.0,27.0,30.05,WSW,248,4.0,-999.0,80,-99.99,,,-99.99,,2013-11-23 09:12:00,
2013-11-23 04:22:00,31.0,26.0,30.05,WSW,248,0.0,-999.0,80,-99.99,,,-99.99,,2013-11-23 09:22:00,
2013-11-23 04:43:00,30.0,25.0,30.05,WSW,248,0.0,-999.0,80,-99.99,,,-99.99,,2013-11-23 09:43:00,
2013-11-23 04:54:00,30.0,25.0,30.06,WSW,248,0.0,-999.0,80,-99.99,,,-99.99,,2013-11-23 09:54:00,
2013-11-23 05:23:00,29.0,25.0,30.05,WSW,248,0.0,-999.0,83,-99.99,,,-99.99,,2013-11-23 10:23:00,
2013-11-23 05:42:00,29.0,25.0,30.05,WSW,248,0.0,-999.0,84,-99.99,,,-99.99,,2013-11-23 10:42:00,
2013-11-23 05:52:00,29.0,25.0,30.06,WSW,248,0.0,-999.0,85,-99.99,,,-99.99,,2013-11-23 10:52:00,
2013-11-23 06:23:00,28.0,25.0,30.06,WSW,248,0.0,-999.0,87,-99.99,,,-99.99,,2013-11-23 11:23:00,
2013-11-23 06:43:00,27.0,24.0,30.06,WSW,248,0.0,-999.0,88,-99.99,,,-99.99,,2013-11-23 11:43:00,
2013-11-23 06:52:00,27.0,24.0,30.07,WSW,248,0.0,-999.0,90,-99.99,,,-99.99,,2013-11-23 11:52:00,
2013-11-23 07:12:00,26.0,24.0,30.07,WSW,248,0.0,-999.0,93,-99.99,,,-99.99,,2013-11-23 12:12:00,
2013-11-23 07:22:00,26.0,25.0,30.08,WSW,248,0.0,-999.0,94,-99.99,,,-99.99,,2013-11-23 12:22:00,
2013-11-23 07:42:00,26.0,25.0,30.08,WSW,248,0.0,-999.0,94,-99.99,,,-99.99,,2013-11-23 12:42:00,
2013-11-23 07:52:00,26.0,25.0,30.09,WSW,248,0.0,-999.0,94,-99.99,,,-99.99,,2013-11-23 12:52:00,
2013-11-23 08:11:00,25.0,24.0,30.10,WSW,248,0.0,-999.0,94,-99.99,,,-99.99,,2013-11-23 13:11:00,
2013-11-23 08:22:00,25.0,24.0,30.11,WSW,248,0.0,-999.0,94,-99.99,,,-99.99,,2013-11-23 13:22:00,
2013-11-23 08:42:00,25.0,24.0,30.11,WSW,248,0.0,-999.0,94,-99.99,,,-99.99,,2013-11-23 13:42:00,
2013-11-23 08:52:00,24.0,23.0,30.11,WSW,248,0.0,-999.0,95,-99.99,,,-99.99,,2013-11-23 13:52:00,
2013-11-23 09:22:00,23.0,22.0,30.12,WSW,248,0.0,-999.0,95,-99.99,,,-99.99,,2013-11-23 14:22:00,
2013-11-23 09:42:00,23.0,22.0,30.11,WSW,248,0.0,-999.0,95,-99.99,,,-99.99,,2013-11-23 14:42:00,
2013-11-23 09:52:00,23.0,22.0,30.12,WSW,248,0.0,-999.0,95,-99.99,,,-99.99,,2013-11-23 14:52:00,
2013-11-23 10:22:00,24.0,23.0,30.12,WSW,248,0.0,-999.0,95,-99.99,,,-99.99,,2013-11-23 15:22:00,
2013-11-23 10:43:00,24.0,23.0,30.12,WSW,248,0.0,-999.0,95,-99.99,,,-99.99,,2013-11-23 15:43:00,
2013-11-23 10:54:00,24.0,23.0,30.12,WSW,248,0.0,-999.0,95,-99.99,,,-99.99,,2013-11-23 15:54:00,
2013-11-23 11:23:00,24.0,23.0,30.11,WSW,248,0.0,-999.0,95,-99.99,,,-99.99,,2013-11-23 16:23:00,
2013-11-23 11:43:00,24.0,23.0,30.11,WSW,248,0.0,-999.0,95,-99.99,,,-99.99,,2013-11-23 16:43:00,
2013-11-23 11:53:00,24.0,23.0,30.10,WSW,248,0.0,-999.0,95,-99.99,,,-99.99,,2013-11-23 16:53:00,
2013-11-23 12:22:00,24.0,23.0,30.08,WSW,248,0.0,-999.0,95,-99.99,,,-99.99,,2013-11-23 17:22:00,
2013-11-23 12:42:00,24.0,23.0,30.08,WSW,248,0.0,-999.0,95,-99.99,,,-99.99,,2013-11-23 17:42:00,
2013-11-23 12:52:00,24.0,23.0,30.08,WSW,248,0.0,-999.0,95,-99.99,,,-99.99,,2013-11-23 17:52:00,
2013-11-23 13:12:00,25.0,24.0,30.06,WSW,248,0.0,-999.0,94,-99.99,,,-99.99,,2013-11-23 18:12:00,
2013-11-23 13:22:00,24.0,23.0,30.05,WSW,248,0.0,-999.0,95,-99.99,,,-99.99,,2013-11-23 18:22:00,
2013-11-23 13:42:00,25.0,24.0,30.06,WSW,248,0.0,-999.0,94,-99.99,,,-99.99,,2013-11-23 18:42:00,
2013-11-23 13:52:00,25.0,24.0,30.06,WSW,248,0.0,-999.0,94,-99.99,,,-99.99,,2013-11-23 18:52:00,
2013-11-23 14:22:00,24.0,23.0,30.07,WSW,248,0.0,-999.0,95,-99.99,,,-99.99,,2013-11-23 19:22:00,
2013-11-23 14:42:00,25.0,24.0,30.05,WSW,248,0.0,-999.0,95,-99.99,,,-99.99,,2013-11-23 19:42:00,
2013-11-23 14:52:00,25.0,24.0,30.06,WSW,248,0.0,-999.0,94,-99.99,,,-99.99,,2013-11-23 19:52:00,
2013-11-23 15:11:00,24.0,23.0,30.06,WSW,248,0.0,-999.0,95,-99.99,,,-99.99,,2013-11-23 20:11:00,
2013-11-23 15:22:00,23.0,22.0,30.06,WSW,248,0.0,-999.0,95,-99.99,,,-99.99,,2013-11-23 20:22:00,
2013-11-23 15:42:00,22.0,21.0,30.06,WSW,248,0.0,-999.0,95,-99.99,,,-99.99,,2013-11-23 20:42:00,
2013-11-23 15:53:00,22.0,21.0,30.06,WSW,248,0.0,-999.0,95,-99.99,,,-99.99,,2013-11-23 20:53:00,
2013-11-23 16:11:00,22.0,21.0,30.07,WSW,248,0.0,-999.0,95,-99.99,,,-99.99,,2013-11-23 21:11:00,
2013-11-23 16:22:00,23.0,22.0,30.06,WSW,248,0.0,-999.0,95,-99.99,,,-99.99,,2013-11-23 21:22:00,
2013-11-23 16:43:00,22.0,21.0,30.06,WSW,248,0.0,-999.0,95,-99.99,,,-99.99,,2013-11-23 21:43:00,
2013-11-23 16:53:00,21.0,20.0,30.06,WSW,248,0.0,-999.0,95,-99.99,,,-99.99,,2013-11-23 21:53:00,
2013-11-23 17:13:00,21.0,20.0,30.06,WSW,248,0.0,-999.0,95,-99.99,,,-99.99,,2013-11-23 22:13:00,
2013-11-23 17:23:00,21.0,20.0,30.05,WSW,248,0.0,-999.0,95,-99.99,,,-99.99,,2013-11-23 22:23:00,
2013-11-23 17:43:00,20.0,19.0,30.07,WSW,248,0.0,-999.0,94,-99.99,,,-99.99,,2013-11-23 22:43:00,
2013-11-23 17:53:00,20.0,19.0,30.07,WSW,248,0.0,-999.0,95,-99.99,,,-99.99,,2013-11-23 22:53:00,
2013-11-23 18:22:00,19.0,18.0,30.07,WSW,248,0.0,-999.0,95,-99.99,,,-99.99,,2013-11-23 23:22:00,
2013-11-23 18:42:00,19.0,18.0,30.08,WSW,248,0.0,-999.0,94,-99.99,,,-99.99,,2013-11-23 23:42:00,
2013-11-23 18:53:00,19.0,17.0,30.07,WSW,248,0.0,-999.0,92,-99.99,,,-99.99,,2013-11-23 23:53:00,
2013-11-23 19:11:00,19.0,17.0,30.08,WSW,248,0.0,-999.0,92,-99.99,,,-99.99,,2013-11-24 00:11:00,
2013-11-23 19:21:00,18.0,16.0,30.08,WSW,248,0.0,-999.0,92,-99.99,,,-99.99,,2013-11-24 00:21:00,
2013-11-23 19:42:00,18.0,16.0,30.08,WSW,248,0.0,-999.0,90,-99.99,,,-99.99,,2013-11-24 00:42:00,
2013-11-23 19:52:00,17.0,14.0,30.08,WSW,248,0.0,-999.0,89,-99.99,,,-99.99,,2013-11-24 00:52:00,
2013-11-23 20:11:00,17.0,14.0,30.10,WSW,248,0.0,-999.0,89,-99.99,,,-99.99,,2013-11-24 01:11:00,
2013-11-23 20:22:00,16.0,13.0,30.11,WSW,248,0.0,-999.0,89,-99.99,,,-99.99,,2013-11-24 01:22:00,
2013-11-23 20:42:00,16.0,14.0,30.12,WSW,248,0.0,-999.0,90,-99.99,,,-99.99,,2013-11-24 01:42:00,
2013-11-23 20:53:00,16.0,14.0,30.12,WSW,248,0.0,-999.0,91,-99.99,,,-99.99,,2013-11-24 01:53:00,
2013-11-23 21:12:00,15.0,13.0,30.12,WSW,248,0.0,-999.0,92,-99.99,,,-99.99,,2013-11-24 02:12:00,
2013-11-23 21:22:00,15.0,13.0,30.13,WSW,248,0.0,-999.0,93,-99.99,,,-99.99,,2013-11-24 02:22:00,
2013-11-23 21:42:00,15.0,14.0,30.14,WSW,248,0.0,-999.0,94,-99.99,,,-99.99,,2013-11-24 02:42:00,
2013-11-23 21:52:00,14.0,13.0,30.13,WSW,248,0.0,-999.0,94,-99.99,,,-99.99,,2013-11-24 02:52:00,
2013-11-23 22:11:00,14.0,13.0,30.14,WSW,248,0.0,-999.0,94,-99.99,,,-99.99,,2013-11-24 03:11:00,
2013-11-23 22:22:00,13.0,12.0,30.14,WSW,248,0.0,-999.0,94,-99.99,,,-99.99,,2013-11-24 03:22:00,
2013-11-23 22:43:00,12.0,11.0,30.15,WSW,248,0.0,-999.0,94,-99.99,,,-99.99,,2013-11-24 03:43:00,
2013-11-23 22:54:00,12.0,11.0,30.16,WSW,248,0.0,-999.0,94,-99.99,,,-99.99,,2013-11-24 03:54:00,
2013-11-23 23:03:00,-999.0,-99.9,30.16,WSW,248,0.0,-999.0,-999,-99.99,,,-99.99,,2013-11-24 04:03:00,
2013-11-23 23:23:00,11.0,9.0,30.17,WSW,248,0.0,-999.0,93,-99.99,,,-99.99,,2013-11-24 04:23:00,
2013-11-23 23:42:00,10.0,8.0,30.18,WSW,248,0.0,-999.0,93,-99.99,,,-99.99,,2013-11-24 04:42:00,
2013-11-23 23:53:00,9.0,7.0,30.20,WSW,248,0.0,-999.0,92,-99.99,,,-99.99,,2013-11-24 04:53:00,